Weather History for Tirana, Albania

Change the Weather History Date:

Thursday, September 12, 2013

  Actual Average Record
Temperature  
Mean Temperature 75 °F -  
Max Temperature 86 °F 75 °F - ()
Min Temperature 64 °F 56 °F - ()
Cooling Degree Days 10    
Growing Degree Days 25 (Base 50)    
Moisture  
Dew Point 63 °F    
Average Humidity 72    
Maximum Humidity 94    
Minimum Humidity 37    
Precipitation  
Precipitation 0.00 in -13.12 in - ()
Sea Level Pressure  
Sea Level Pressure 29.96 in    
Wind  
Wind Speed 5 mph ()    
Max Wind Speed 22 mph    
Max Gust Speed 34 mph    
Visibility 6.1 miles    
Events Rain , Thunderstorm    
T = Trace of Precipitation, MM = Missing Value Source: Averaged Metar Reports

Daily Weather History Graph

Daily Weather History Graph

Search for Another Location

Airport:

Trip Planner

Search our weather history database for the weather conditions in past years. The results will help you decide how hot, cold, wet, or windy it might be!

Date:

Astronomy

Sep. 12, 2013 Rise Set
Actual Time 6:18 AM CEST 6:55 PM CEST
Civil Twilight 5:50 AM CEST 7:23 PM CEST
Nautical Twilight 5:17 AM CEST 7:56 PM CEST
Astronomical Twilight 4:43 AM CEST 8:30 PM CEST
Moon 1:32 PM CEST (9/12) 11:27 PM CEST (9/12)
Length of Visible Light 13h 32m
Length of Day
12h 37m
Waxing Crescent, 47% of the Moon is Illuminated
Sep 12
Waxing Crescent
Sep 12
First Quarter
Sep 19
Full
Sep 27
Last Quarter
Oct 5
New

Hourly Weather History & Observations

Time (CEST) Temp. Heat Index Dew Point Humidity Pressure Visibility Wind Dir Wind Speed Gust Speed Precip Events Conditions
12:50 AM 68.0 °F - 62.6 °F 83% 29.98 in 6.2 mi South 4.6 mph - N/A   Scattered Clouds
1:20 AM 68.0 °F - 62.6 °F 83% 29.98 in 6.2 mi ESE 5.8 mph - N/A   Mostly Cloudy
1:50 AM 69.8 °F - 62.6 °F 78% 29.98 in 6.2 mi South 2.3 mph - N/A   Mostly Cloudy
2:20 AM 69.8 °F - 62.6 °F 78% 29.98 in 6.2 mi South 5.8 mph - N/A   Mostly Cloudy
2:50 AM 68.0 °F - 62.6 °F 83% 29.98 in 6.2 mi SSE 4.6 mph - N/A   Mostly Cloudy
3:20 AM 68.0 °F - 60.8 °F 78% 29.95 in 6.2 mi SE 6.9 mph - N/A   Scattered Clouds
3:50 AM 68.0 °F - 60.8 °F 78% 29.95 in 6.2 mi South 4.6 mph - N/A   Scattered Clouds
4:20 AM 68.0 °F - 60.8 °F 78% 29.95 in 6.2 mi Variable 2.3 mph - N/A   Scattered Clouds
4:50 AM 69.8 °F - 62.6 °F 78% 29.95 in 6.2 mi SSE 8.1 mph - N/A   Scattered Clouds
5:20 AM 68.0 °F - 60.8 °F 78% 29.95 in 6.2 mi SE 4.6 mph - N/A   Scattered Clouds
5:50 AM 68.0 °F - 64.4 °F 88% 29.95 in 6.2 mi South 4.6 mph - N/A Rain Light Rain
6:20 AM 69.8 °F - 64.4 °F 83% 29.95 in 6.2 mi South 3.5 mph - N/A   Mostly Cloudy
6:50 AM 68.0 °F - 64.4 °F 88% 29.98 in 6.2 mi Variable 2.3 mph - N/A   Mostly Cloudy
7:20 AM 68.0 °F - 66.2 °F 94% 29.98 in 6.2 mi ESE 3.5 mph - N/A   Scattered Clouds
7:50 AM 71.6 °F - 68.0 °F 88% 29.98 in 6.2 mi SSE 4.6 mph - N/A   Scattered Clouds
8:20 AM 75.2 °F - 68.0 °F 78% 29.98 in 6.2 mi SE 6.9 mph - N/A   Scattered Clouds
8:50 AM 77.0 °F - 68.0 °F 74% 29.98 in 6.2 mi SE 5.8 mph - N/A   Partly Cloudy
9:20 AM 77.0 °F - 68.0 °F 74% 29.98 in 6.2 mi SE 5.8 mph - N/A   Mostly Cloudy
9:50 AM 78.8 °F - 64.4 °F 61% 29.98 in 6.2 mi Variable 2.3 mph - N/A   Mostly Cloudy
10:20 AM 78.8 °F - 62.6 °F 57% 29.98 in 6.2 mi Variable 3.5 mph - N/A   Mostly Cloudy
10:50 AM 82.4 °F 83.9 °F 64.4 °F 54% 29.98 in 6.2 mi South 3.5 mph - N/A   Mostly Cloudy
11:00 AM 82 °F - 65 °F 47% 29.99 in 28 mi WSW 4.5 mph - -   Scattered Clouds
11:20 AM 82.4 °F 83.9 °F 64.4 °F 54% 29.98 in 6.2 mi West 3.5 mph - N/A   Scattered Clouds
11:50 AM 84.2 °F 85.0 °F 62.6 °F 48% 29.98 in 6.2 mi South 5.8 mph - N/A   Scattered Clouds
12:20 PM 84.2 °F 83.8 °F 59.0 °F 42% 29.95 in 6.2 mi South 5.8 mph - N/A   Mostly Cloudy
12:50 PM 84.2 °F 84.4 °F 60.8 °F 45% 29.95 in 6.2 mi South 6.9 mph - N/A   Mostly Cloudy
1:20 PM 86.0 °F 84.9 °F 57.2 °F 37% 29.95 in 6.2 mi South 9.2 mph - N/A   Mostly Cloudy
1:50 PM 84.2 °F 84.4 °F 60.8 °F 45% 29.95 in 6.2 mi South 8.1 mph - N/A   Mostly Cloudy
2:20 PM 82.4 °F 82.5 °F 59.0 °F 45% 29.95 in 6.2 mi SSW 8.1 mph - N/A   Mostly Cloudy
2:50 PM 80.6 °F 80.8 °F 57.2 °F 45% 29.95 in 6.2 mi SSW 12.7 mph - N/A   Mostly Cloudy
3:20 PM 78.8 °F - 59.0 °F 51% 29.92 in 6.2 mi South 8.1 mph - N/A   Mostly Cloudy
3:50 PM 78.8 °F - 60.8 °F 54% 29.92 in 6.2 mi SSE 6.9 mph - N/A   Mostly Cloudy
4:20 PM 78.8 °F - 62.6 °F 57% 29.92 in 6.2 mi South 8.1 mph - N/A   Mostly Cloudy
4:50 PM 78.8 °F - 60.8 °F 54% 29.92 in 6.2 mi South 9.2 mph - N/A   Mostly Cloudy
5:00 PM 79 °F - 63 °F 48% 29.92 in 25 mi South 11.2 mph - -   Partly Cloudy
5:20 PM 78.8 °F - 64.4 °F 61% 29.92 in 6.2 mi South 11.5 mph - N/A   Mostly Cloudy
5:50 PM 77.0 °F - 62.6 °F 61% 29.92 in 6.2 mi SSW 8.1 mph - N/A   Mostly Cloudy
6:20 PM 71.6 °F - 68.0 °F 88% 29.92 in 3.1 mi SW 8.1 mph - N/A Rain , Thunderstorm Thunderstorms and Rain
6:50 PM 64.4 °F - 62.6 °F 94% 29.92 in - West 21.9 mph 34.5 mph N/A Rain , Thunderstorm Heavy Thunderstorms and Rain
7:20 PM 66.2 °F - 62.6 °F 88% 29.98 in 6.2 mi SE 5.8 mph - N/A Rain , Thunderstorm Light Thunderstorms and Rain
7:50 PM 64.4 °F - 62.6 °F 94% 29.98 in 6.2 mi SE 6.9 mph - N/A   Mostly Cloudy
8:20 PM 66.2 °F - 62.6 °F 88% 29.98 in 6.2 mi SSE 8.1 mph - N/A Rain Light Rain
8:50 PM 66.2 °F - 62.6 °F 88% 29.98 in 6.2 mi South 6.9 mph - N/A   Mostly Cloudy
9:20 PM 66.2 °F - 62.6 °F 88% 29.98 in 6.2 mi SSE 6.9 mph - N/A   Mostly Cloudy
9:50 PM 66.2 °F - 62.6 °F 88% 29.98 in 6.2 mi South 5.8 mph - N/A   Mostly Cloudy
10:20 PM 66.2 °F - 62.6 °F 88% 29.98 in 6.2 mi South 5.8 mph - N/A   Mostly Cloudy
10:50 PM 66.2 °F - 62.6 °F 88% 29.98 in 6.2 mi SSE 5.8 mph - N/A   Mostly Cloudy
11:00 PM 66 °F - 62 °F 84%  in 40 mi SSE 4.5 mph - -   Partly Cloudy
11:20 PM 66.2 °F - 62.6 °F 88% 29.95 in 6.2 mi SSE 4.6 mph - N/A   Mostly Cloudy
11:50 PM 66.2 °F - 62.6 °F 88% 29.95 in 6.2 mi SSE 5.8 mph - N/A   Mostly Cloudy